Location: Breitenfeld
(46.8500°N, 15.6333°E)
Time: 17:37:22
(UTC+00:00)

Mayak - Pass Details

Date: 09 April 2020
Orbit: 581 x 600 km, 97.5° (Epoch: 04 June)

Event Time Altitude Azimuth Distance (km) Brightness Sun altitude
Rises 22:00:28 0° 4° (N) 2,823 ? -33.6°
Reaches altitude 10° 22:02:48 10° 355° (N) 1,916 ? -33.7°
Enters shadow 22:04:27 21° 339° (NNW) 1,354 ? -33.8°
